Location: Haliburton Scout Reserve
(45.0900°N, 78.3200°W)
Time: 05:48:10
(UTC-05:00)

Altair - All Passes

Search period start: 31 January 2023 00:00
Search period end: 10 February 2023 00:00
Orbit: 1501 x 1683 km, 47.2° (Epoch: 30 January)

Date Brightness Start Highest point End Pass type
(mag) Time Alt. Az. Time Alt. Az. Time Alt. Az.
31 Jan - 01:30:56 10° WNW 01:41:03 77° SSW 01:51:12 10° ESE visible
31 Jan - 03:36:16 10° WNW 03:44:58 34° SW 03:53:36 10° SSE visible
31 Jan - 18:53:10 10° SSW 19:01:32 35° SE 19:10:10 10° ENE visible
31 Jan - 20:55:40 10° WSW 21:05:26 79° SSE 21:15:33 10° ENE visible
31 Jan - 23:00:35 10° W 23:10:36 79° N 23:20:51 10° E visible
01 Feb - 01:05:42 10° WNW 01:15:49 80° SSW 01:26:00 10° ESE night (unlit)
01 Feb - 03:10:57 10° WNW 03:19:51 37° SW 03:28:43 10° SSE visible
01 Feb - 18:28:21 10° SSW 18:36:27 32° SE 18:44:49 10° ENE visible
01 Feb - 20:30:31 10° WSW 20:40:13 76° SSE 20:50:18 10° ENE visible
01 Feb - 22:35:21 10° W 22:45:19 79° N 22:55:34 10° E visible
02 Feb - 00:40:29 10° WNW 00:50:35 83° SSW 01:00:47 10° ESE night (unlit)
02 Feb - 02:45:38 10° WNW 02:54:44 39° SW 03:03:48 10° SSE visible
02 Feb - 18:03:33 10° S 18:11:23 30° SE 18:19:27 10° ENE visible
02 Feb - 20:05:23 10° SW 20:15:01 73° SSE 20:25:03 10° ENE visible
02 Feb - 22:10:07 10° W 22:20:03 80° N 22:30:17 10° E visible
03 Feb - 00:15:15 10° WNW 00:25:21 86° SSW 00:35:34 10° ESE visible
03 Feb - 02:20:21 10° WNW 02:29:36 42° SW 02:38:51 10° SSE night (unlit)
03 Feb - 04:30:17 10° WSW 04:32:18 11° WSW 04:34:18 10° SW visible
03 Feb - 17:38:48 10° S 17:46:19 27° SE 17:54:02 10° ENE visible
03 Feb - 19:40:16 10° SW 19:49:50 70° SSE 19:59:47 10° ENE visible
03 Feb - 21:44:53 10° W 21:54:47 80° N 22:05:00 10° E visible
03 Feb - 23:50:02 10° WNW 00:00:06 88° SSW 00:10:20 10° ESE visible
04 Feb - 01:55:05 10° WNW 02:04:28 45° SW 02:13:52 10° SSE night (unlit)
04 Feb - 04:03:36 10° W 04:07:16 12° WSW 04:10:57 10° SW night (unlit)
04 Feb - 17:14:06 10° S 17:21:16 25° SE 17:28:36 10° E daylight
04 Feb - 19:15:11 10° SW 19:24:40 66° SSE 19:34:31 10° ENE visible
04 Feb - 21:19:39 10° W 21:29:31 81° N 21:39:43 10° E visible
04 Feb - 23:24:48 10° WNW 23:34:51 90° NNE 23:45:05 10° ESE visible
05 Feb - 01:29:48 10° WNW 01:39:18 48° SW 01:48:51 10° SSE night (unlit)
05 Feb - 03:37:32 10° W 03:42:15 14° WSW 03:46:58 10° SSW night (unlit)
05 Feb - 16:49:28 10° S 16:56:13 22° SE 17:03:07 10° E daylight
05 Feb - 18:50:06 10° SW 18:59:29 63° SSE 19:09:16 10° ENE visible
05 Feb - 20:54:26 10° W 21:04:15 82° N 21:14:26 10° E visible
05 Feb - 22:59:35 10° WNW 23:09:37 88° NNE 23:19:50 10° ESE visible
06 Feb - 01:04:33 10° WNW 01:14:09 52° SW 01:23:49 10° SE night (unlit)
06 Feb - 03:11:42 10° W 03:17:12 16° WSW 03:22:43 10° SSW night (unlit)
06 Feb - 16:24:54 10° SSE 16:31:11 20° SE 16:37:36 10° E daylight
06 Feb - 18:25:03 10° SW 18:34:20 59° SE 18:44:00 10° ENE visible
06 Feb - 20:29:13 10° W 20:39:00 83° NNW 20:49:09 10° ENE visible
06 Feb - 22:34:22 10° WNW 22:44:21 86° NNE 22:54:35 10° ESE visible
07 Feb - 00:39:19 10° WNW 00:48:59 55° SW 00:58:45 10° SE visible
07 Feb - 02:46:01 10° W 02:52:09 18° SW 02:58:19 10° SSW night (unlit)
07 Feb - 16:00:26 10° SSE 16:06:09 18° SE 16:12:00 10° E daylight
07 Feb - 18:00:01 10° SW 18:09:11 56° SE 18:18:44 10° ENE visible
07 Feb - 20:04:00 10° WSW 20:13:45 85° NNW 20:23:53 10° ENE visible
07 Feb - 22:09:08 10° WNW 22:19:05 84° NNE 22:29:18 10° ESE visible
08 Feb - 00:14:05 10° WNW 00:23:49 58° SW 00:33:40 10° SE visible
08 Feb - 02:20:26 10° W 02:27:06 20° SW 02:33:48 10° SSW night (unlit)
08 Feb - 15:36:04 10° SSE 15:41:08 16° ESE 15:46:18 10° E daylight
08 Feb - 17:35:00 10° SW 17:44:03 52° SE 17:53:27 10° ENE daylight
08 Feb - 19:38:49 10° WSW 19:48:30 86° NNW 19:58:36 10° ENE visible
08 Feb - 21:43:55 10° W 21:53:50 83° N 22:04:02 10° E visible
08 Feb - 23:48:51 10° WNW 23:58:38 61° SSW 00:08:34 10° SE visible
09 Feb - 01:54:55 10° W 02:02:02 22° SW 02:09:11 10° S night (unlit)
09 Feb - 15:11:52 10° SSE 15:16:08 14° ESE 15:20:27 10° E daylight
09 Feb - 17:10:01 10° SSW 17:18:55 49° SE 17:28:12 10° ENE daylight
09 Feb - 19:13:37 10° WSW 19:23:16 88° NNW 19:33:21 10° ENE visible
09 Feb - 21:18:43 10° W 21:28:34 82° N 21:38:45 10° E visible
09 Feb - 23:23:39 10° WNW 23:33:27 65° SSW 23:43:26 10° SE visible
